AGJ812 LGIR-LGPL

Flight info

Callsign AGJ812
Flight time 0h 57m
Altitude 2500
Route PAXIMADI NAVUS GIVIS KAMENI MAGANARI ANIDROS UVRIT DCT
Aircraft PA24/L-SDGRY/S

Departure

Time 2026-05-07 07:11
Airport Heraklion International Nikos Kazantzakis Airport (LGIR)

Arrival

Time 2026-05-07 08:08
Airport Astypalaia Airport (LGPL)
Time Latitude Longitude Altitude Speed Heading
2026-05-07 06:47 35.33813 25.17663 85 ft 0 kts 275°
2026-05-07 07:01 35.33813 25.17664 85 ft 0 kts 275°
2026-05-07 07:04 35.33813 25.17659 85 ft 2 kts 275°
2026-05-07 07:04 35.33823 25.17622 85 ft 6 kts 336°
2026-05-07 07:04 35.33870 25.17624 85 ft 7 kts
2026-05-07 07:04 35.33902 25.17654 87 ft 7 kts 98°
2026-05-07 07:05 35.33896 25.17724 88 ft 9 kts 95°
2026-05-07 07:05 35.33890 25.17812 86 ft 11 kts 95°
2026-05-07 07:05 35.33883 25.17915 86 ft 13 kts 94°
2026-05-07 07:05 35.33876 25.18027 86 ft 14 kts 95°
2026-05-07 07:06 35.33868 25.18138 89 ft 12 kts 95°
2026-05-07 07:06 35.33861 25.18235 87 ft 11 kts 95°
2026-05-07 07:06 35.33854 25.18338 87 ft 13 kts 94°
2026-05-07 07:06 35.33846 25.18459 85 ft 15 kts 94°
2026-05-07 07:07 35.33837 25.18588 85 ft 15 kts 95°
2026-05-07 07:07 35.33828 25.18713 84 ft 15 kts 95°
2026-05-07 07:07 35.33820 25.18829 84 ft 4 kts 95°
2026-05-07 07:07 35.33820 25.18831 84 ft 0 kts 95°
2026-05-07 07:08 35.33817 25.18872 84 ft 10 kts 95°
2026-05-07 07:08 35.33831 25.18950 86 ft 10 kts 57°
2026-05-07 07:09 35.33866 25.19017 84 ft 9 kts 58°
2026-05-07 07:09 35.33899 25.19051 83 ft 6 kts 333°
2026-05-07 07:09 35.33907 25.19015 82 ft 0 kts 275°
2026-05-07 07:09 35.33908 25.18986 82 ft 24 kts 272°
2026-05-07 07:10 35.33941 25.18512 97 ft 78 kts 274°
2026-05-07 07:10 35.33971 25.17821 212 ft 83 kts 273°
2026-05-07 07:10 35.34034 25.17095 380 ft 89 kts 281°
2026-05-07 07:10 35.34146 25.16351 633 ft 91 kts 278°
2026-05-07 07:11 35.34335 25.15581 850 ft 100 kts 300°
2026-05-07 07:11 35.34898 25.15015 1010 ft 112 kts 340°
2026-05-07 07:11 35.35700 25.15134 1021 ft 129 kts 37°
2026-05-07 07:11 35.36345 25.15986 951 ft 142 kts 52°
2026-05-07 07:12 35.36936 25.16949 1008 ft 140 kts 57°
2026-05-07 07:12 35.37486 25.17934 1041 ft 140 kts 59°
2026-05-07 07:12 35.38013 25.18935 1060 ft 143 kts 53°
2026-05-07 07:12 35.38670 25.19888 1012 ft 147 kts 51°
2026-05-07 07:13 35.39339 25.20819 1062 ft 144 kts 51°
2026-05-07 07:13 35.39945 25.21806 1055 ft 145 kts 55°
2026-05-07 07:13 35.40559 25.22770 1065 ft 145 kts 52°
2026-05-07 07:13 35.41194 25.23731 1065 ft 145 kts 52°
2026-05-07 07:14 35.41818 25.24705 1064 ft 146 kts 53°
2026-05-07 07:14 35.42441 25.25693 1062 ft 146 kts 53°
2026-05-07 07:14 35.43067 25.26679 1062 ft 147 kts 53°
2026-05-07 07:14 35.43728 25.27635 1050 ft 148 kts 41°
2026-05-07 07:15 35.44671 25.28032 1049 ft 148 kts
2026-05-07 07:15 35.45706 25.28021 1061 ft 148 kts
2026-05-07 07:15 35.46749 25.28018 1058 ft 149 kts
2026-05-07 07:15 35.47775 25.28009 1054 ft 150 kts
2026-05-07 07:16 35.48818 25.27969 1056 ft 150 kts 360°
2026-05-07 07:16 35.49862 25.27952 1055 ft 150 kts
2026-05-07 07:16 35.50905 25.27927 1052 ft 150 kts 359°
2026-05-07 07:16 35.51950 25.27891 1055 ft 151 kts
2026-05-07 07:17 35.53001 25.27898 1050 ft 152 kts
2026-05-07 07:17 35.54045 25.27863 1052 ft 151 kts
2026-05-07 07:17 35.55102 25.27824 1052 ft 152 kts
2026-05-07 07:17 35.56162 25.27789 1049 ft 152 kts
2026-05-07 07:18 35.57225 25.27766 1047 ft 152 kts
2026-05-07 07:18 35.58288 25.27750 1047 ft 153 kts
2026-05-07 07:18 35.59351 25.27738 1047 ft 153 kts
2026-05-07 07:18 35.60420 25.27692 1050 ft 153 kts 359°
2026-05-07 07:19 35.61485 25.27655 1045 ft 153 kts
2026-05-07 07:19 35.62537 25.27609 1047 ft 153 kts 359°
2026-05-07 07:19 35.63611 25.27527 1047 ft 154 kts 359°
2026-05-07 07:19 35.64684 25.27461 1044 ft 154 kts 360°
2026-05-07 07:20 35.65753 25.27399 1039 ft 153 kts 359°
2026-05-07 07:20 35.66823 25.27352 1043 ft 154 kts
2026-05-07 07:20 35.67896 25.27306 1044 ft 154 kts
2026-05-07 07:20 35.68974 25.27271 1044 ft 154 kts 359°
2026-05-07 07:21 35.70050 25.27218 1039 ft 155 kts
2026-05-07 07:21 35.71109 25.27176 1038 ft 154 kts 359°
2026-05-07 07:21 35.72180 25.27156 1041 ft 153 kts
2026-05-07 07:21 35.73249 25.27209 1040 ft 154 kts
2026-05-07 07:22 35.74305 25.27329 1040 ft 154 kts
2026-05-07 07:22 35.75365 25.27487 1041 ft 153 kts
2026-05-07 07:22 35.76414 25.27614 1042 ft 153 kts
2026-05-07 07:22 35.77473 25.27748 1080 ft 150 kts
2026-05-07 07:23 35.78489 25.27850 1222 ft 144 kts
2026-05-07 07:23 35.79450 25.28001 1474 ft 135 kts 10°
2026-05-07 07:23 35.80352 25.28189 1743 ft 127 kts 13°
2026-05-07 07:23 35.81201 25.28375 1998 ft 123 kts
2026-05-07 07:24 35.82024 25.28542 2235 ft 121 kts
2026-05-07 07:24 35.82856 25.28652 2471 ft 119 kts
2026-05-07 07:24 35.83672 25.28738 2706 ft 118 kts
2026-05-07 07:24 35.84500 25.28814 2922 ft 118 kts
2026-05-07 07:25 35.86152 25.28916 3375 ft 120 kts
2026-05-07 07:25 35.87008 25.29021 3489 ft 130 kts
2026-05-07 07:25 35.87939 25.29190 3504 ft 142 kts 12°
2026-05-07 07:26 35.88940 25.29448 3492 ft 152 kts 12°
2026-05-07 07:26 35.90002 25.29664 3510 ft 156 kts
2026-05-07 07:26 35.91091 25.29814 3508 ft 157 kts
2026-05-07 07:26 35.92169 25.29964 3499 ft 158 kts
2026-05-07 07:27 35.93256 25.30161 3498 ft 158 kts
2026-05-07 07:27 35.94347 25.30344 3498 ft 158 kts 11°
2026-05-07 07:27 35.95419 25.30643 3497 ft 158 kts 14°
2026-05-07 07:27 35.96480 25.30981 3497 ft 157 kts 18°
2026-05-07 07:28 35.97507 25.31455 3496 ft 157 kts 21°
2026-05-07 07:28 35.98531 25.31932 3501 ft 157 kts 20°
2026-05-07 07:28 35.99551 25.32415 3494 ft 157 kts 21°
2026-05-07 07:28 36.00562 25.32897 3496 ft 157 kts 20°
2026-05-07 07:29 36.01593 25.33373 3494 ft 157 kts 20°
2026-05-07 07:29 36.02620 25.33852 3496 ft 157 kts 20°
2026-05-07 07:29 36.03643 25.34337 3496 ft 157 kts 20°
2026-05-07 07:29 36.04668 25.34801 3498 ft 157 kts 19°
2026-05-07 07:30 36.05681 25.35265 3503 ft 157 kts 21°
2026-05-07 07:30 36.06702 25.35747 3497 ft 157 kts 21°
2026-05-07 07:30 36.07723 25.36239 3502 ft 157 kts 20°
2026-05-07 07:30 36.08748 25.36703 3498 ft 157 kts 21°
2026-05-07 07:31 36.09771 25.37179 3499 ft 157 kts 20°
2026-05-07 07:31 36.10786 25.37655 3502 ft 157 kts 19°
2026-05-07 07:31 36.11807 25.38143 3504 ft 157 kts 20°
2026-05-07 07:31 36.12835 25.38620 3506 ft 157 kts 20°
2026-05-07 07:32 36.13847 25.39090 3507 ft 157 kts 20°
2026-05-07 07:32 36.14866 25.39579 3505 ft 157 kts 21°
2026-05-07 07:32 36.15889 25.40051 3504 ft 157 kts 20°
2026-05-07 07:32 36.16921 25.40495 3503 ft 157 kts 12°
2026-05-07 07:33 36.18009 25.40475 3507 ft 156 kts 354°
2026-05-07 07:33 36.19080 25.40369 3509 ft 156 kts 353°
2026-05-07 07:33 36.20164 25.40221 3508 ft 156 kts 353°
2026-05-07 07:33 36.21247 25.40098 3509 ft 156 kts 356°
2026-05-07 07:34 36.22330 25.40005 3503 ft 156 kts 354°
2026-05-07 07:34 36.23399 25.39891 3503 ft 156 kts 354°
2026-05-07 07:34 36.24481 25.39761 3506 ft 156 kts 354°
2026-05-07 07:34 36.25563 25.39630 3506 ft 156 kts 353°
2026-05-07 07:35 36.26644 25.39506 3509 ft 156 kts 352°
2026-05-07 07:35 36.27725 25.39489 3511 ft 156 kts
2026-05-07 07:35 36.28806 25.39647 3513 ft 156 kts
2026-05-07 07:35 36.29891 25.39771 3509 ft 156 kts
2026-05-07 07:36 36.30976 25.39906 3512 ft 156 kts
2026-05-07 07:36 36.32048 25.40053 3512 ft 156 kts
2026-05-07 07:36 36.33134 25.40180 3514 ft 156 kts
2026-05-07 07:36 36.34221 25.40307 3514 ft 156 kts
2026-05-07 07:37 36.35308 25.40406 3513 ft 158 kts
2026-05-07 07:37 36.36403 25.40490 3511 ft 160 kts
2026-05-07 07:37 36.37511 25.40536 3510 ft 159 kts
2026-05-07 07:37 36.38615 25.40568 3509 ft 158 kts
2026-05-07 07:38 36.39712 25.40646 3509 ft 157 kts
2026-05-07 07:38 36.40806 25.40708 3512 ft 157 kts
2026-05-07 07:38 36.41884 25.40772 3513 ft 157 kts
2026-05-07 07:38 36.42976 25.40838 3514 ft 157 kts
2026-05-07 07:39 36.44069 25.40885 3510 ft 156 kts
2026-05-07 07:39 36.45158 25.40946 3508 ft 156 kts
2026-05-07 07:39 36.46231 25.41018 3516 ft 157 kts
2026-05-07 07:39 36.47339 25.41043 3513 ft 160 kts
2026-05-07 07:40 36.48455 25.41093 3513 ft 160 kts
2026-05-07 07:40 36.49559 25.41177 3512 ft 158 kts
2026-05-07 07:40 36.50659 25.41225 3508 ft 158 kts
2026-05-07 07:40 36.51756 25.41293 3513 ft 157 kts
2026-05-07 07:41 36.52841 25.41339 3505 ft 157 kts
2026-05-07 07:41 36.53933 25.41395 3508 ft 157 kts
2026-05-07 07:41 36.54655 25.41422 3511 ft 157 kts
2026-05-07 07:41 36.55745 25.41485 3506 ft 156 kts
2026-05-07 07:42 36.57192 25.41558 3508 ft 157 kts
2026-05-07 07:42 36.58281 25.41620 3504 ft 157 kts
2026-05-07 07:42 36.59015 25.41664 3502 ft 156 kts
2026-05-07 07:42 36.60093 25.41713 3504 ft 156 kts
2026-05-07 07:43 36.61183 25.41768 3505 ft 157 kts
2026-05-07 07:43 36.62278 25.41812 3503 ft 157 kts
2026-05-07 07:43 36.63293 25.42238 3494 ft 157 kts 38°
2026-05-07 07:43 36.63812 25.43407 3492 ft 158 kts 81°
2026-05-07 07:44 36.63761 25.44774 3511 ft 158 kts 95°
2026-05-07 07:44 36.63669 25.46131 3508 ft 159 kts 96°
2026-05-07 07:44 36.63563 25.47508 3504 ft 160 kts 95°
2026-05-07 07:44 36.63448 25.48870 3506 ft 160 kts 96°
2026-05-07 07:45 36.63331 25.50245 3507 ft 160 kts 95°
2026-05-07 07:45 36.63226 25.51628 3502 ft 160 kts 96°
2026-05-07 07:45 36.63117 25.53006 3503 ft 160 kts 96°
2026-05-07 07:45 36.63000 25.54385 3504 ft 160 kts 95°
2026-05-07 07:46 36.62885 25.55762 3503 ft 159 kts 97°
2026-05-07 07:46 36.62779 25.57120 3501 ft 160 kts 95°
2026-05-07 07:46 36.62676 25.58500 3502 ft 160 kts 96°
2026-05-07 07:46 36.62564 25.59881 3502 ft 160 kts 95°
2026-05-07 07:47 36.62456 25.61260 3501 ft 160 kts 96°
2026-05-07 07:47 36.62343 25.62622 3504 ft 160 kts 95°
2026-05-07 07:47 36.62233 25.63997 3501 ft 160 kts 96°
2026-05-07 07:47 36.62114 25.65372 3502 ft 159 kts 96°
2026-05-07 07:48 36.62014 25.66748 3503 ft 159 kts 96°
2026-05-07 07:48 36.61903 25.68122 3501 ft 159 kts 95°
2026-05-07 07:48 36.61793 25.69495 3500 ft 159 kts 96°
2026-05-07 07:48 36.61682 25.70854 3500 ft 160 kts 95°
2026-05-07 07:49 36.61586 25.72232 3504 ft 160 kts 95°
2026-05-07 07:49 36.61481 25.73609 3498 ft 159 kts 95°
2026-05-07 07:49 36.61381 25.74981 3499 ft 159 kts 95°
2026-05-07 07:49 36.61275 25.76354 3498 ft 159 kts 96°
2026-05-07 07:50 36.61162 25.77724 3496 ft 159 kts 95°
2026-05-07 07:50 36.61065 25.79097 3498 ft 159 kts 95°
2026-05-07 07:50 36.60966 25.80468 3499 ft 159 kts 95°
2026-05-07 07:50 36.60870 25.81844 3496 ft 159 kts 94°
2026-05-07 07:51 36.60757 25.83199 3498 ft 159 kts 95°
2026-05-07 07:51 36.60656 25.84571 3495 ft 159 kts 95°
2026-05-07 07:51 36.60554 25.85948 3498 ft 159 kts 94°
2026-05-07 07:51 36.60443 25.87322 3499 ft 159 kts 95°
2026-05-07 07:52 36.60342 25.88695 3502 ft 159 kts 95°
2026-05-07 07:52 36.60235 25.90065 3504 ft 159 kts 95°
2026-05-07 07:52 36.60121 25.91430 3499 ft 159 kts 95°
2026-05-07 07:52 36.60030 25.92800 3500 ft 159 kts 94°
2026-05-07 07:53 36.59926 25.94158 3500 ft 159 kts 94°
2026-05-07 07:53 36.59823 25.95534 3497 ft 159 kts 95°
2026-05-07 07:53 36.59715 25.96906 3502 ft 159 kts 94°
2026-05-07 07:53 36.59611 25.98279 3499 ft 159 kts 95°
2026-05-07 07:54 36.59504 25.99650 3499 ft 159 kts 94°
2026-05-07 07:54 36.59403 26.01005 3499 ft 159 kts 95°
2026-05-07 07:54 36.59296 26.02375 3501 ft 159 kts 94°
2026-05-07 07:54 36.59187 26.03745 3498 ft 159 kts 94°
2026-05-07 07:55 36.59083 26.05115 3503 ft 159 kts 95°
2026-05-07 07:55 36.58980 26.06485 3500 ft 159 kts 94°
2026-05-07 07:55 36.58878 26.07857 3499 ft 159 kts 94°
2026-05-07 07:55 36.58771 26.09211 3501 ft 159 kts 94°
2026-05-07 07:56 36.58671 26.10583 3502 ft 159 kts 94°
2026-05-07 07:56 36.58561 26.11950 3501 ft 159 kts 95°
2026-05-07 07:56 36.58462 26.13318 3504 ft 159 kts 94°
2026-05-07 07:56 36.58361 26.14687 3501 ft 159 kts 94°
2026-05-07 07:57 36.58263 26.16052 3510 ft 158 kts 94°
2026-05-07 07:57 36.58156 26.17416 3501 ft 158 kts 96°
2026-05-07 07:57 36.58010 26.18771 3504 ft 158 kts 96°
2026-05-07 07:57 36.57884 26.20090 3498 ft 149 kts 95°
2026-05-07 07:58 36.57791 26.21337 3379 ft 139 kts 92°
2026-05-07 07:58 36.57765 26.22517 3164 ft 135 kts 89°
2026-05-07 07:58 36.57771 26.23692 2899 ft 136 kts 86°
2026-05-07 07:58 36.57824 26.24853 2684 ft 132 kts 86°
2026-05-07 07:59 36.57854 26.25994 2471 ft 131 kts 90°
2026-05-07 07:59 36.57843 26.27127 2254 ft 130 kts 90°
2026-05-07 07:59 36.57815 26.28236 2047 ft 129 kts 92°
2026-05-07 07:59 36.57781 26.29352 1821 ft 128 kts 92°
2026-05-07 08:00 36.57733 26.30461 1600 ft 127 kts 95°
2026-05-07 08:00 36.57655 26.31549 1409 ft 124 kts 96°
2026-05-07 08:00 36.57587 26.32629 1188 ft 125 kts 94°
2026-05-07 08:00 36.57563 26.33696 1034 ft 122 kts 91°
2026-05-07 08:01 36.57585 26.34701 1013 ft 110 kts 89°
2026-05-07 08:01 36.57615 26.35622 994 ft 104 kts 88°
2026-05-07 08:01 36.57678 26.36508 988 ft 103 kts 84°
2026-05-07 08:01 36.57778 26.37393 1009 ft 102 kts 76°
2026-05-07 08:02 36.58230 26.38072 1037 ft 107 kts 27°
2026-05-07 08:02 36.58942 26.37997 1059 ft 113 kts 326°
2026-05-07 08:02 36.59602 26.37492 1092 ft 112 kts 329°
2026-05-07 08:02 36.60222 26.36863 1061 ft 116 kts 304°
2026-05-07 08:03 36.60311 26.35902 1011 ft 119 kts 249°
2026-05-07 08:03 36.59825 26.35160 1118 ft 107 kts 213°
2026-05-07 08:03 36.59124 26.34836 1104 ft 109 kts 182°
2026-05-07 08:03 36.58436 26.35049 1082 ft 98 kts 150°
2026-05-07 08:04 36.57865 26.35428 1048 ft 92 kts 148°
2026-05-07 08:04 36.57318 26.35860 988 ft 92 kts 148°
2026-05-07 08:04 36.56761 26.36233 1006 ft 91 kts 152°
2026-05-07 08:04 36.56208 26.36592 1008 ft 87 kts 151°
2026-05-07 08:05 36.55671 26.36938 972 ft 88 kts 152°
2026-05-07 08:05 36.55135 26.37274 975 ft 84 kts 149°
2026-05-07 08:05 36.54671 26.37679 999 ft 81 kts 129°
2026-05-07 08:05 36.54508 26.38321 1015 ft 81 kts 83°
2026-05-07 08:06 36.54762 26.38961 994 ft 84 kts 57°
2026-05-07 08:06 36.55199 26.39424 964 ft 87 kts 15°
2026-05-07 08:06 36.55756 26.39209 824 ft 88 kts 320°
2026-05-07 08:06 36.56218 26.38782 638 ft 80 kts 332°
2026-05-07 08:07 36.56699 26.38459 434 ft 74 kts 332°
2026-05-07 08:07 36.57133 26.38149 316 ft 72 kts 332°
2026-05-07 08:07 36.57570 26.37838 197 ft 72 kts 332°
2026-05-07 08:07 36.57952 26.37567 158 ft 50 kts 331°
2026-05-07 08:08 36.58100 26.37460 158 ft 9 kts 330°
2026-05-07 08:08 36.58137 26.37467 158 ft 1 kts 62°
2026-05-07 08:08 36.58133 26.37509 157 ft 5 kts 117°
2026-05-07 08:08 36.58143 26.37528 157 ft 0 kts 324°